Precipitable_Water
2.02 2.01 1.93 1.85 1.84 1.84 1.82 1.82 1.86 1.86 1.86 1.84 1.75 1.73 1.72 1.68 1.60 1.49 1.40 1.42 1.53 1.59 1.61 1.58 1.57 1.58 1.60 1.54 1.52 1.51 1.45 1.40 1.44 1.51 1.46 1.42 1.41 1.43 1.40 1.39 1.38 1.37
2.03 2.03 2.01 1.93 1.88 1.89 1.87 1.89 1.89 1.89 1.88 1.87 1.83 1.79 1.81 1.77 1.71 1.61 1.46 1.37 1.44 1.54 1.61 1.61 1.58 1.55 1.55 1.52 1.49 1.47 1.45 1.41 1.36 1.48 1.45 1.39 1.35 1.38 1.37 1.33 1.31 1.35
2.10 2.04 2.03 1.94 1.88 1.86 1.87 1.92 1.96 1.94 1.92 1.91 1.90 1.84 1.82 1.83 1.77 1.76 1.64 1.46 1.36 1.44 1.57 1.61 1.58 1.55 1.55 1.52 1.47 1.44 1.42 1.38 1.35 1.42 1.41 1.35 1.33 1.28 1.29 1.30 1.29 1.28
2.11 2.12 2.07 2.01 1.95 1.91 1.91 1.93 1.98 1.98 1.96 1.90 1.87 1.87 1.86 1.87 1.83 1.79 1.76 1.66 1.47 1.38 1.49 1.58 1.58 1.56 1.55 1.54 1.51 1.45 1.44 1.43 1.43 1.44 1.39 1.36 1.34 1.30 1.26 1.25 1.21 1.20
2.10 2.07 2.09 2.05 2.00 1.97 1.95 1.94 1.96 1.97 1.93 1.91 1.92 1.92 1.89 1.86 1.85 1.82 1.79 1.77 1.66 1.48 1.40 1.48 1.55 1.53 1.54 1.54 1.55 1.49 1.44 1.41 1.43 1.44 1.42 1.37 1.36 1.33 1.31 1.27 1.21 1.13
2.21 2.18 2.13 2.05 2.01 1.97 1.94 1.94 1.96 1.96 1.94 1.93 1.93 1.95 1.93 1.90 1.86 1.84 1.82 1.79 1.74 1.65 1.50 1.38 1.41 1.48 1.49 1.48 1.50 1.47 1.46 1.41 1.43 1.42 1.39 1.37 1.37 1.38 1.36 1.32 1.28 1.21
2.18 2.18 2.13 2.10 2.04 1.99 1.95 1.97 1.99 1.97 1.95 1.95 1.98 1.94 1.94 1.90 1.86 1.86 1.86 1.84 1.80 1.75 1.66 1.50 1.38 1.39 1.45 1.45 1.44 1.43 1.44 1.45 1.46 1.42 1.35 1.35 1.36 1.37 1.37 1.36 1.35 1.33
2.11 2.12 2.12 2.14 2.00 1.98 1.94 1.98 1.99 1.97 1.98 1.99 1.94 1.94 1.92 1.88 1.87 1.88 1.89 1.88 1.84 1.79 1.74 1.67 1.51 1.41 1.43 1.45 1.44 1.45 1.44 1.45 1.45 1.43 1.36 1.31 1.32 1.30 1.33 1.33 1.32 1.34
2.11 2.10 2.08 2.08 2.04 2.00 1.97 1.98 1.98 1.98 2.01 1.96 1.94 1.94 1.94 1.90 1.89 1.89 1.88 1.86 1.85 1.83 1.79 1.73 1.68 1.55 1.49 1.46 1.43 1.42 1.40 1.41 1.41 1.39 1.35 1.29 1.24 1.23 1.25 1.30 1.28 1.27
2.09 2.14 2.12 2.10 2.03 2.00 1.99 2.01 1.99 1.98 1.99 1.94 1.94 1.95 1.90 1.90 1.91 1.91 1.89 1.86 1.83 1.82 1.81 1.77 1.73 1.70 1.60 1.51 1.46 1.43 1.39 1.38 1.38 1.35 1.34 1.31 1.26 1.22 1.21 1.22 1.23 1.23
2.01 2.07 2.08 2.08 2.05 2.03 2.02 2.03 2.00 1.97 1.95 1.91 1.91 1.91 1.91 1.89 1.90 1.92 1.90 1.88 1.84 1.82 1.80 1.78 1.76 1.75 1.71 1.63 1.55 1.50 1.44 1.39 1.35 1.33 1.30 1.29 1.28 1.24 1.20 1.18 1.18 1.19
2.03 2.06 2.08 2.09 2.08 2.06 2.05 2.06 2.03 1.98 1.94 1.92 1.90 1.86 1.87 1.88 1.86 1.88 1.88 1.86 1.86 1.85 1.84 1.81 1.78 1.77 1.75 1.71 1.66 1.59 1.53 1.46 1.39 1.34 1.31 1.29 1.27 1.26 1.23 1.23 1.22 1.22
2.01 2.04 2.07 2.06 2.07 2.06 2.06 2.04 1.99 1.95 1.94 1.94 1.96 1.92 1.89 1.87 1.88 1.86 1.87 1.85 1.85 1.86 1.84 1.82 1.80 1.80 1.78 1.75 1.72 1.68 1.64 1.57 1.49 1.43 1.39 1.38 1.33 1.29 1.29 1.29 1.27 1.25
2.00 1.99 1.97 1.99 2.03 2.06 2.05 2.02 1.99 1.95 1.94 1.99 2.02 1.98 1.96 1.90 1.87 1.84 1.85 1.86 1.85 1.85 1.86 1.85 1.83 1.82 1.81 1.78 1.76 1.73 1.70 1.65 1.60 1.57 1.54 1.51 1.47 1.41 1.39 1.38 1.34 1.30
1.93 1.93 1.91 1.88 1.88 1.94 1.98 1.99 1.98 1.97 1.98 1.99 1.99 1.98 2.00 1.96 1.91 1.88 1.85 1.84 1.85 1.84 1.85 1.86 1.84 1.83 1.83 1.80 1.76 1.74 1.72 1.67 1.66 1.67 1.66 1.62 1.59 1.55 1.48 1.45 1.43 1.39
1.91 1.92 1.89 1.90 1.92 1.92 1.92 1.94 1.97 1.96 1.95 1.94 1.94 1.97 1.99 1.97 1.91 1.89 1.87 1.85 1.84 1.85 1.86 1.86 1.84 1.84 1.85 1.83 1.79 1.73 1.70 1.68 1.68 1.70 1.71 1.70 1.64 1.59 1.54 1.52 1.49 1.47
1.82 1.86 1.89 1.88 1.92 1.93 1.94 1.95 1.96 1.95 1.94 1.95 1.97 1.97 1.97 1.95 1.89 1.85 1.85 1.86 1.86 1.86 1.85 1.85 1.84 1.83 1.82 1.81 1.77 1.74 1.71 1.68 1.66 1.69 1.72 1.73 1.69 1.62 1.54 1.49 1.48 1.51
1.80 1.83 1.83 1.82 1.83 1.89 1.94 1.95 1.95 1.92 1.91 1.96 1.97 1.94 1.93 1.92 1.87 1.86 1.88 1.89 1.89 1.90 1.90 1.88 1.85 1.83 1.81 1.79 1.77 1.74 1.72 1.69 1.70 1.70 1.72 1.72 1.69 1.63 1.56 1.50 1.46 1.47
1.79 1.79 1.76 1.74 1.78 1.85 1.89 1.92 1.92 1.91 1.92 1.94 1.95 1.98 1.97 1.91 1.89 1.90 1.88 1.91 1.90 1.88 1.89 1.90 1.86 1.83 1.80 1.78 1.75 1.73 1.70 1.68 1.66 1.67 1.67 1.67 1.66 1.62 1.55 1.49 1.46 1.45
1.79 1.81 1.74 1.72 1.79 1.85 1.87 1.88 1.90 1.90 1.93 1.95 1.95 1.96 1.93 1.92 1.92 1.90 1.88 1.88 1.90 1.90 1.91 1.92 1.87 1.85 1.80 1.76 1.74 1.72 1.71 1.71 1.70 1.67 1.66 1.65 1.64 1.61 1.56 1.51 1.50 1.49
1.78 1.78 1.72 1.73 1.78 1.81 1.84 1.84 1.86 1.88 1.89 1.90 1.90 1.89 1.88 1.89 1.91 1.89 1.90 1.91 1.91 1.92 1.90 1.88 1.88 1.87 1.82 1.78 1.75 1.73 1.73 1.74 1.74 1.72 1.70 1.67 1.65 1.62 1.58 1.56 1.56 1.57
1.78 1.75 1.72 1.74 1.76 1.76 1.76 1.78 1.82 1.85 1.85 1.90 1.91 1.92 1.93 1.94 1.95 1.94 1.91 1.91 1.91 1.90 1.87 1.85 1.87 1.88 1.84 1.80 1.78 1.76 1.75 1.76 1.76 1.73 1.69 1.67 1.65 1.65 1.65 1.64 1.63 1.60
1.69 1.71 1.70 1.70 1.72 1.72 1.73 1.75 1.77 1.79 1.84 1.92 1.89 1.88 1.86 1.86 1.86 1.87 1.91 1.91 1.89 1.88 1.85 1.84 1.86 1.87 1.85 1.82 1.80 1.80 1.79 1.77 1.76 1.73 1.68 1.64 1.62 1.65 1.66 1.64 1.64 1.64
1.64 1.66 1.68 1.71 1.72 1.71 1.71 1.74 1.79 1.82 1.81 1.86 1.82 1.82 1.82 1.84 1.85 1.87 1.89 1.88 1.84 1.82 1.82 1.79 1.79 1.83 1.85 1.84 1.81 1.79 1.77 1.73 1.73 1.70 1.65 1.60 1.57 1.59 1.60 1.60 1.63 1.66
1.64 1.65 1.68 1.70 1.72 1.74 1.76 1.72 1.70 1.74 1.79 1.83 1.81 1.79 1.77 1.82 1.82 1.80 1.81 1.83 1.84 1.84 1.86 1.83 1.82 1.85 1.87 1.85 1.81 1.79 1.77 1.74 1.71 1.67 1.62 1.60 1.59 1.57 1.59 1.58 1.59 1.62
1.61 1.59 1.63 1.65 1.68 1.74 1.77 1.74 1.74 1.71 1.71 1.71 1.74 1.77 1.73 1.72 1.75 1.75 1.74 1.78 1.85 1.87 1.87 1.87 1.83 1.84 1.86 1.86 1.84 1.81 1.80 1.79 1.78 1.70 1.63 1.61 1.62 1.60 1.57 1.59 1.59 1.57
Wind_Speed
26 25 25 24 24 23 23 22 22 21 21 21 21 21 21 21 21 22 22 23 23 22 22 21 21 21 20 20 19 19 19 18 17 17 16 16 15 14 14 13 12 11
28 26 25 24 24 23 23 22 22 22 22 22 22 22 22 22 22 22 22 23 23 23 23 22 22 22 21 20 20 20 20 19 18 18 17 17 16 15 15 14 13 12
28 27 26 25 25 24 23 23 22 22 22 22 22 22 22 22 22 22 22 23 23 24 24 24 23 23 22 21 21 21 21 20 19 18 18 18 17 16 16 15 15 14
28 27 26 26 25 24 23 23 23 22 22 22 22 23 23 23 23 23 23 23 23 24 25 25 24 23 23 22 21 21 21 21 20 19 19 19 18 18 17 16 16 16
27 28 26 26 25 24 24 23 23 23 22 22 22 23 23 23 23 24 24 23 23 24 25 26 25 25 24 23 22 22 22 22 21 20 20 20 19 19 18 17 17 17
27 27 26 25 25 24 24 23 23 23 23 22 23 23 23 24 24 24 24 24 24 24 24 25 26 26 25 25 24 23 23 23 22 22 21 20 20 19 19 18 18 17
25 25 25 24 24 24 24 23 23 23 23 23 23 23 24 24 24 24 24 24 24 24 24 24 25 26 26 26 25 24 24 24 23 23 22 22 21 20 20 19 19 18
23 24 24 23 23 23 23 23 23 23 23 23 23 24 24 24 25 25 25 24 24 24 24 24 25 26 26 26 26 25 24 24 24 23 23 23 23 22 21 20 19 19
21 22 23 23 22 22 23 23 23 23 23 23 24 24 24 24 25 25 25 25 25 25 25 24 25 26 26 26 26 25 25 25 25 24 24 24 24 23 23 22 21 20
20 21 22 23 22 22 22 22 23 23 23 23 24 24 25 25 25 25 25 25 25 25 25 25 25 26 27 27 26 26 26 26 26 25 25 25 25 24 24 23 22 22
19 20 21 22 22 22 22 22 22 22 23 23 23 24 25 25 26 26 25 25 25 25 25 25 26 26 26 27 27 27 26 26 26 26 26 26 25 25 24 24 24 23
18 19 20 21 21 22 22 22 22 22 22 22 23 23 24 25 25 26 26 26 25 25 25 25 25 26 26 26 27 27 26 26 26 26 26 26 26 26 25 25 25 24
17 18 19 20 20 21 22 22 23 22 22 22 22 23 23 24 25 25 25 25 25 25 24 25 25 26 26 26 26 26 26 26 26 26 26 26 26 26 26 25 25 25
15 16 17 18 19 20 21 22 22 23 23 22 22 23 23 24 25 25 25 25 25 25 24 25 25 26 25 25 25 26 25 25 25 26 26 26 26 26 26 26 25 25
14 14 15 16 17 19 20 21 22 22 22 23 23 23 23 24 24 24 25 25 26 26 25 25 25 25 25 25 26 26 25 25 25 25 26 26 26 26 26 26 25 25
13 13 13 14 16 18 19 21 21 21 22 22 22 23 23 23 24 24 24 25 25 26 25 25 25 25 26 26 26 26 26 25 25 25 26 26 26 26 26 26 26 25
12 13 13 13 15 16 17 19 20 20 21 21 21 22 22 23 23 24 24 24 25 25 25 25 24 25 26 26 26 26 26 26 25 25 25 26 26 26 26 26 26 26
11 12 12 13 13 14 15 17 18 19 20 20 21 21 22 22 22 23 23 24 25 25 25 25 24 24 25 26 26 26 26 26 26 26 25 25 26 26 26 26 26 26
10 11 11 12 13 13 14 15 16 17 18 19 20 20 21 21 22 22 22 23 24 25 25 25 25 24 24 24 25 26 26 26 26 26 26 26 26 26 26 26 26 26
10 10 10 11 12 12 13 14 15 16 17 18 19 19 20 21 22 22 22 22 23 24 25 25 25 24 24 24 25 25 25 25 25 26 26 26 26 26 26 26 26 26
9 10 10 11 11 11 12 13 14 15 16 17 18 19 19 20 21 22 22 22 22 22 24 24 25 25 24 24 24 25 25 25 25 26 26 26 26 26 27 26 26 26
8 9 10 10 11 11 12 12 13 14 15 16 17 18 18 19 20 21 21 21 21 21 22 23 24 24 24 24 24 25 25 25 25 26 26 26 26 26 27 27 27 27
7 8 9 10 11 11 12 12 13 14 15 15 16 16 17 18 19 19 20 20 20 20 21 21 22 23 24 23 24 25 25 25 25 26 26 26 26 26 27 27 27 27
7 8 8 8 9 10 11 12 13 13 14 15 15 15 16 17 18 19 19 19 19 20 20 20 21 22 23 23 23 24 24 24 25 26 26 27 27 27 27 27 27 27
7 8 8 8 9 9 10 11 12 13 14 14 15 15 16 16 17 18 18 18 19 19 20 20 21 21 21 22 22 22 22 23 24 25 25 26 26 26 26 27 27 28
6 7 8 9 9 10 10 10 11 12 13 14 15 15 16 16 17 17 18 18 18 19 19 20 20 20 21 21 21 22 22 22 23 24 25 25 25 26 26 27 27 27
Wind_Direction
214 213 212 211 211 211 210 210 210 210 210 209 209 209 210 209 208 208 209 209 209 209 209 208 209 208 208 208 209 210 212 214 215 216 215 215 216 216 218 220 221 221
212 212 211 210 210 210 210 211 211 211 211 210 210 210 210 210 210 210 210 210 210 211 210 210 210 210 210 210 210 211 213 216 217 218 218 219 221 221 222 225 226 225
210 210 209 209 210 210 211 211 212 212 212 212 211 211 211 211 212 211 212 212 212 212 212 212 212 212 212 212 213 213 214 216 217 219 220 222 224 225 226 228 229 229
209 209 208 208 209 210 210 211 212 212 212 213 212 212 212 212 213 213 213 213 214 214 213 213 214 214 214 215 216 216 216 217 218 219 222 224 226 228 229 231 232 232
208 208 208 207 208 209 210 211 212 213 213 213 213 213 213 213 214 214 214 215 215 215 215 215 216 216 216 217 218 218 218 220 221 221 223 225 227 228 231 233 234 235
207 208 207 207 207 209 210 212 213 213 214 215 215 215 214 214 215 215 215 215 216 217 217 217 218 218 219 219 220 220 220 221 222 223 224 226 227 228 231 233 235 237
207 208 208 207 207 209 211 213 214 215 215 216 216 216 215 215 215 216 215 216 217 218 219 218 218 219 220 221 221 222 222 222 223 225 226 227 228 229 231 234 235 237
207 208 209 209 209 210 213 215 216 216 217 217 217 216 216 216 216 217 217 217 218 219 220 220 220 220 221 221 222 222 223 224 225 226 228 228 229 230 232 234 236 238
207 208 209 210 211 212 214 216 216 217 217 217 217 217 217 218 218 218 218 218 219 220 221 221 221 220 221 221 222 223 224 225 227 228 229 229 230 231 232 234 236 238
209 209 209 210 212 214 216 217 217 217 218 219 219 219 219 219 219 219 219 220 221 221 221 221 221 221 221 222 223 225 225 227 229 230 230 230 231 232 234 234 236 238
209 210 210 211 213 215 216 216 217 218 219 220 220 220 220 220 220 220 220 220 221 221 221 220 221 221 222 223 224 226 227 228 230 230 231 231 232 233 235 235 236 238
208 210 211 213 216 217 217 217 218 219 220 220 220 220 221 221 220 220 220 220 221 221 221 221 221 222 223 224 225 227 228 229 230 231 231 233 233 234 235 236 237 238
209 211 213 216 219 220 219 219 219 221 221 221 221 221 221 220 220 220 220 220 220 221 221 221 222 224 225 225 226 227 228 229 230 231 232 234 235 235 235 237 238 239
213 216 218 220 220 220 221 221 221 222 223 223 223 223 222 220 220 220 220 220 220 221 221 221 222 224 225 225 226 227 229 229 230 231 233 234 235 235 235 236 238 239
217 220 222 222 221 220 221 222 223 223 223 223 224 224 222 221 220 219 219 220 221 221 222 222 223 224 225 226 226 227 229 230 231 232 233 234 236 235 236 236 237 239
219 221 223 223 221 221 222 222 222 222 222 223 223 222 221 221 220 219 219 220 221 221 222 223 224 225 226 226 227 228 229 230 231 232 233 234 236 236 236 237 238 239
220 221 224 224 222 221 221 221 220 221 221 222 222 220 219 219 219 219 219 221 221 221 223 223 224 225 226 226 228 229 230 231 232 233 234 234 235 237 237 238 239 240
220 220 222 224 221 219 219 219 218 219 219 220 219 217 217 218 218 219 220 221 221 222 222 223 223 225 226 227 228 230 231 232 233 234 235 235 236 237 238 238 239 240
219 220 220 221 220 218 218 218 217 217 217 216 216 216 217 218 219 219 220 221 221 222 223 223 223 225 227 228 230 231 232 232 234 235 235 236 236 237 237 238 239 240
219 221 220 219 218 216 215 216 216 215 215 214 215 216 218 220 220 219 220 222 223 223 223 224 224 226 228 230 230 231 232 233 234 235 235 236 237 237 236 237 238 240
220 220 220 219 217 214 214 215 215 215 215 215 216 218 220 221 220 220 221 222 223 223 223 224 225 227 230 232 233 233 233 234 235 236 236 236 237 238 237 237 238 240
222 218 219 219 218 216 216 216 217 217 216 216 217 219 220 221 220 220 220 221 222 222 223 225 226 229 231 234 234 234 233 235 236 236 236 237 238 238 238 239 240 242
228 221 218 219 219 218 219 219 219 219 217 217 218 219 220 220 220 220 220 220 221 223 224 226 228 230 232 234 235 234 235 236 236 236 236 237 239 239 239 240 242 244
234 229 224 220 219 220 221 222 223 222 220 220 220 221 222 222 221 220 220 221 222 224 226 228 230 231 233 235 235 235 236 237 237 236 237 238 240 241 241 242 243 245
233 231 229 226 225 224 224 224 225 226 225 223 223 223 224 223 221 221 221 223 225 226 228 231 233 234 234 235 235 235 236 237 236 236 237 239 241 242 243 243 244 246
232 231 231 232 232 231 228 226 226 227 226 225 225 224 224 223 223 223 224 226 227 228 230 232 234 235 235 235 235 236 236 237 237 238 239 241 242 243 244 245 247 248